DW7854 Weather Reports


time (UTC)temp
C
wind
direction
speed
KPH
gust
KPH
rain 1hr
cm
rain 24hr
cm
rain mn
cm
humidity
%
barometer
mb
20260902130503 24 25 1.6 3.2 0.00 0.00 0.00 88 1016.0
20260902130005 23 10 0.0 3.2 0.00 0.00 0.00 89 1015.6
20260902124703 23 16 0.0 1.6 0.00 0.00 0.00 90 1016.0
20260902124604 23 15 0.0 1.6 0.00 0.00 0.00 90 1015.6
20260902123017 23 36 0.0 4.8 0.00 0.00 0.00 89 1015.5
20260902122903 23 51 1.6 4.8 0.00 0.00 0.00 89 1015.8
20260902122003 23 56 0.0 3.2 0.00 0.00 0.00 89 1015.7
20260902121508 23 55 0.0 3.2 0.00 0.00 0.00 89 1015.2
20260902121103 23 42 0.0 3.2 0.00 0.00 0.00 89 1015.5
20260902120203 23 67 1.6 4.8 0.00 0.00 0.00 89 1015.5
20260902120103 23 32 0.0 4.8 0.00 0.00 0.00 89 1015.2
20260902115307 23 47 1.6 4.8 0.00 0.00 0.00 89 1015.5
20260902114605 23 32 0.0 3.2 0.00 0.00 0.00 88 1015.1
20260902113503 23 39 1.6 4.8 0.00 0.00 0.00 88 1015.3
20260902113005 23 26 1.6 4.8 0.00 0.00 0.00 88 1015.0
20260902112603 23 104 1.6 4.8 0.00 0.00 0.00 88 1015.3
20260902111703 23 0 0.0 0.0 0.00 0.00 0.00 88 1015.3
20260902111514 23 156 0.0 0.0 0.00 0.00 0.00 88 1014.9
20260902110019 23 156 0.0 0.0 0.00 0.00 0.00 87 1015.0
20260902105903 23 156 0.0 1.6 0.00 0.00 0.00 87 1015.3
20260902105003 23 155 1.6 3.2 0.00 0.00 0.00 87 1015.3
20260902104612 23 156 0.0 3.2 0.00 0.00 0.00 86 1014.9
20260902104103 24 156 0.0 1.6 0.00 0.00 0.00 85 1015.2
20260902103203 24 155 1.6 3.2 0.00 0.00 0.00 86 1015.1
20260902103007 23 156 0.0 3.2 0.00 0.00 0.00 86 1014.8
20260902102307 24 155 1.6 3.2 0.00 0.00 0.00 85 1015.2
20260902101605 24 156 1.6 3.2 0.00 0.00 0.00 85 1014.7
20260902101403 24 155 1.6 3.2 0.00 0.00 0.00 85 1015.1
20260902100104 24 156 0.0 0.0 0.00 0.00 0.00 85 1014.7
20260902094504 24 156 0.0 0.0 0.00 0.00 0.00 84 1014.5
20260902093803 24 156 0.0 1.6 0.00 0.00 0.00 84 1014.8
20260902093003 24 156 0.0 3.2 0.00 0.00 0.00 84 1014.5
20260902092903 24 156 0.0 3.2 0.00 0.00 0.00 84 1014.8
20260902092003 24 155 0.0 3.2 0.00 0.00 0.00 83 1014.8
20260902091504 24 156 0.0 3.2 0.00 0.00 0.00 83 1014.5
20260902091103 24 155 1.6 3.2 0.00 0.00 0.00 83 1014.6
20260902090203 25 0 0.0 0.0 0.00 0.00 0.00 82 1014.7
20260902090006 24 156 0.0 0.0 0.00 0.00 0.00 82 1014.4
20260902085306 25 0 0.0 0.0 0.00 0.00 0.00 81 1014.7
20260902084505 24 156 0.0 0.0 0.00 0.00 0.00 81 1014.5
20260902084403 25 0 0.0 0.0 0.00 0.00 0.00 81 1014.8
20260902083503 25 0 0.0 0.0 0.00 0.00 0.00 81 1014.8
20260902083111 25 156 0.0 0.0 0.00 0.00 0.00 81 1014.5
20260902082603 25 0 0.0 0.0 0.00 0.00 0.00 80 1014.8
20260902081703 25 0 0.0 0.0 0.00 0.00 0.00 80 1014.8
20260902081508 25 156 0.0 0.0 0.00 0.00 0.00 79 1014.5
20260902080803 25 0 0.0 0.0 0.00 0.00 0.00 79 1014.8
20260902080008 25 156 0.0 0.0 0.00 0.00 0.00 78 1014.4
20260902074604 25 156 0.0 0.0 0.00 0.00 0.00 78 1014.5
20260902074103 26 0 0.0 0.0 0.00 0.00 0.00 77 1014.8
20260902073203 26 155 0.0 1.6 0.00 0.00 0.00 76 1014.9
20260902073105 26 156 0.0 1.6 0.00 0.00 0.00 76 1014.6
20260902071503 26 156 0.0 1.6 0.00 0.00 0.00 74 1014.7
20260902071403 26 156 0.0 1.6 0.00 0.00 0.00 74 1015.0
20260902070503 26 0 0.0 0.0 0.00 0.00 0.00 73 1015.1
20260902070108 26 156 0.0 0.0 0.00 0.00 0.00 73 1014.7
20260902065603 27 0 0.0 0.0 0.00 0.00 0.00 72 1015.2
20260902064703 27 0 0.0 0.0 0.00 0.00 0.00 71 1015.2
20260902064502 27 156 0.0 1.6 0.00 0.00 0.00 71 1014.9
20260902063803 27 156 0.0 1.6 0.00 0.00 0.00 71 1015.2
20260902063109 27 156 0.0 3.2 0.00 0.00 0.00 70 1014.7
20260902062903 27 155 1.6 3.2 0.00 0.00 0.00 70 1015.1
20260902062003 27 155 1.6 4.8 0.00 0.00 0.00 70 1015.1
20260902061614 27 156 0.0 4.8 0.00 0.00 0.00 70 1014.7
20260902061103 27 155 3.2 6.4 0.00 0.00 0.00 69 1015.1
20260902060203 27 154 3.2 4.8 0.00 0.00 0.00 69 1015.1
20260902060005 27 154 1.6 6.4 0.00 0.00 0.00 68 1014.7
20260902055306 28 154 4.8 6.4 0.00 0.00 0.00 68 1014.9
20260902054616 28 144 3.2 8.0 0.00 0.00 0.00 67 1014.5
20260902054403 28 148 4.8 12.9 0.00 0.00 0.00 67 1014.8
20260902053503 28 152 3.2 9.7 0.00 0.00 0.00 66 1014.8
20260902053016 28 153 1.6 8.0 0.00 0.00 0.00 66 1014.5
20260902051703 28 143 4.8 8.0 0.00 0.00 0.00 65 1014.6
20260902051604 28 197 4.8 8.0 0.00 0.00 0.00 65 1014.3
20260902050803 28 146 6.4 11.3 0.00 0.00 0.00 64 1014.6
20260902050006 28 125 6.4 11.3 0.00 0.00 0.00 64 1014.2
20260902045903 28 145 6.4 9.7 0.00 0.00 0.00 64 1014.4
20260902045003 28 142 4.8 9.7 0.00 0.00 0.00 63 1014.5
20260902044509 28 129 3.2 11.3 0.00 0.00 0.00 63 1014.2
20260902043203 29 122 1.6 6.4 0.00 0.00 0.00 62 1014.4
20260902043005 29 135 3.2 6.4 0.00 0.00 0.00 62 1014.0
20260902042308 29 133 3.2 4.8 0.00 0.00 0.00 61 1014.3
20260902041508 29 150 3.2 8.0 0.00 0.00 0.00 61 1014.1
20260902041403 30 124 3.2 8.0 0.00 0.00 0.00 61 1014.4
20260902040503 30 123 3.2 8.0 0.00 0.00 0.00 61 1014.4
20260902040103 29 88 1.6 8.0 0.00 0.00 0.00 60 1014.1
20260902035603 30 138 1.6 8.0 0.00 0.00 0.00 60 1014.4
20260902034703 30 133 3.2 6.4 0.00 0.00 0.00 60 1014.3
20260902034603 30 111 1.6 6.4 0.00 0.00 0.00 60 1014.0
20260902033803 30 133 4.8 6.4 0.00 0.00 0.00 60 1014.4
20260902033008 30 139 3.2 8.0 0.00 0.00 0.00 60 1014.1
20260902032903 30 146 4.8 8.0 0.00 0.00 0.00 60 1014.4
20260902032003 30 144 4.8 9.7 0.00 0.00 0.00 60 1014.3
20260902031605 30 124 3.2 9.7 0.00 0.00 0.00 60 1013.9
20260902031103 30 144 4.8 11.3 0.00 0.00 0.00 61 1014.1
20260902030005 30 165 4.8 9.7 0.00 0.00 0.00 61 1013.6
20260902025306 30 145 3.2 9.7 0.00 0.00 0.00 61 1013.9
20260902024504 30 143 1.6 8.0 0.00 0.00 0.00 61 1013.5
20260902023503 31 139 3.2 9.7 0.00 0.00 0.00 61 1013.7
20260902023009 30 137 1.6 11.3 0.00 0.00 0.00 62 1013.3
20260902022603 31 140 4.8 9.7 0.00 0.00 0.00 62 1013.6
20260902021703 31 143 4.8 9.7 0.00 0.00 0.00 63 1013.4
20260902021514 30 128 3.2 9.7 0.00 0.00 0.00 63 1013.0
20260902020006 31 142 1.6 8.0 0.00 0.00 0.00 63 1012.8
20260902015903 31 133 3.2 8.0 0.00 0.00 0.00 63 1013.1
20260902015003 31 133 1.6 4.8 0.00 0.00 0.00 63 1012.9
20260902014509 31 133 0.0 3.2 0.00 0.00 0.00 62 1012.5
20260902014103 31 133 0.0 3.2 0.00 0.00 0.00 62 1012.7
20260902013203 32 133 0.0 3.2 0.00 0.00 0.00 61 1012.6
20260902013105 32 133 0.0 3.2 0.00 0.00 0.00 60 1012.3
20260902012308 32 133 1.6 4.8 0.00 0.00 0.00 59 1012.5
20260902011506 32 133 0.0 4.8 0.00 0.00 0.00 58 1012.2
20260902011403 32 133 0.0 4.8 0.00 0.00 0.00 58 1012.5
20260902010503 33 0 0.0 0.0 0.00 0.00 0.00 57 1012.5
20260902010105 33 133 0.0 0.0 0.00 0.00 0.00 56 1012.1
20260902005603 33 0 0.0 0.0 0.00 0.00 0.00 55 1012.4
20260902004703 33 0 0.0 0.0 0.00 0.00 0.00 55 1012.3
20260902004506 33 133 0.0 0.0 0.00 0.00 0.00 55 1011.9
20260902003803 34 133 0.0 1.6 0.00 0.00 0.00 53 1012.2
20260902003008 34 133 0.0 3.2 0.00 0.00 0.00 52 1011.9
20260902002903 34 133 1.6 3.2 0.00 0.00 0.00 52 1012.2
20260902002003 35 134 1.6 3.2 0.00 0.00 0.00 51 1012.3
20260902001508 34 135 1.6 4.8 0.00 0.00 0.00 51 1012.0
20260902001103 35 142 3.2 6.4 0.00 0.00 0.00 50 1012.3
20260902000011 35 153 1.6 8.0 0.00 0.00 0.00 50 1012.0
20260901235307 35 138 4.8 8.0 0.00 0.00 0.00 49 1012.4
20260901234503 35 121 3.2 11.3 0.00 0.00 0.00 49 1012.1
20260901234403 35 145 6.4 11.3 0.00 0.00 0.00 49 1012.4
20260901233503 35 161 6.4 14.5 0.00 0.00 0.00 48 1012.5
20260901233111 35 149 3.2 14.5 0.00 0.00 0.00 48 1012.2
20260901232603 36 138 4.8 11.3 0.00 0.00 0.00 47 1012.6
20260901231703 36 138 6.4 16.1 0.00 0.00 0.00 46 1012.6
20260901231609 36 114 6.4 16.1 0.00 0.00 0.00 47 1012.3
20260901230803 36 115 4.8 12.9 0.00 0.00 0.00 46 1012.6
20260901230012 36 108 1.6 11.3 0.00 0.00 0.00 46 1012.3
20260901225903 36 112 6.4 12.9 0.00 0.00 0.00 46 1012.7
20260901225003 36 155 8.0 17.7 0.00 0.00 0.00 46 1012.7
20260901224504 36 127 4.8 17.7 0.00 0.00 0.00 47 1012.5
20260901224103 37 169 9.7 17.7 0.00 0.00 0.00 46 1012.7
20260901223008 36 161 11.3 20.9 0.00 0.00 0.00 46 1012.4
20260901222306 37 157 11.3 19.3 0.00 0.00 0.00 45 1012.9
20260901221505 37 159 11.3 17.7 0.00 0.00 0.00 45 1012.6
20260901221403 37 151 9.7 17.7 0.00 0.00 0.00 45 1012.9
20260901220503 37 154 9.7 14.5 0.00 0.00 0.00 45 1012.8
20260901220134 37 171 9.7 16.1 0.00 0.00 0.00 46 1012.6
20260901214703 37 158 9.7 17.7 0.00 0.00 0.00 45 1012.9
20260901214503 37 137 8.0 17.7 0.00 0.00 0.00 44 1012.6
20260901213802 37 156 11.3 17.7 0.00 0.00 0.00 45 1013.0
20260901213120 37 132 12.9 19.3 0.00 0.00 0.00 44 1012.7
20260901212903 37 153 11.3 19.3 0.00 0.00 0.00 44 1013.0
20260901212002 37 143 9.7 20.9 0.00 0.00 0.00 45 1013.1
20260901211503 37 153 6.4 17.7 0.00 0.00 0.00 46 1012.8
20260901211103 37 147 9.7 17.7 0.00 0.00 0.00 44 1013.2
20260901210203 37 157 12.9 24.1 0.00 0.00 0.00 45 1013.2
20260901210017 37 148 12.9 25.7 0.00 0.00 0.00 45 1012.9
20260901205306 38 162 12.9 24.1 0.00 0.00 0.00 45 1013.2
20260901204604 38 165 14.5 24.1 0.00 0.00 0.00 45 1012.9
20260901204403 38 164 11.3 24.1 0.00 0.00 0.00 45 1013.2
20260901203503 37 138 8.0 17.7 0.00 0.00 0.00 46 1013.4
20260901203110 37 165 6.4 12.9 0.00 0.00 0.00 46 1013.1
20260901202603 37 127 8.0 22.5 0.00 0.00 0.00 45 1013.5
20260901201703 38 154 4.8 16.1 0.00 0.00 0.00 44 1013.6
20260901201505 37 95 4.8 11.3 0.00 0.00 0.00 45 1013.2
20260901200803 38 140 4.8 12.9 0.00 0.00 0.00 44 1013.7
20260901200005 37 106 1.6 8.0 0.00 0.00 0.00 45 1013.5
20260901195903 37 84 4.8 11.3 0.00 0.00 0.00 45 1013.9
20260901195002 38 116 4.8 14.5 0.00 0.00 0.00 44 1014.0
20260901194603 37 130 1.6 9.7 0.00 0.00 0.00 46 1013.7
20260901194103 37 181 4.8 11.3 0.00 0.00 0.00 46 1014.1
20260901193202 37 163 6.4 20.9 0.00 0.00 0.00 46 1014.3
20260901193004 37 299 4.8 20.9 0.00 0.00 0.00 45 1014.0
20260901192306 38 151 8.0 16.1 0.00 0.00 0.00 44 1014.3
20260901191617 37 137 11.3 17.7 0.00 0.00 0.00 46 1014.1
20260901191402 37 125 6.4 14.5 0.00 0.00 0.00 47 1014.4
20260901190005 37 176 12.9 19.3 0.00 0.00 0.00 45 1014.1
20260901185603 37 162 11.3 19.3 0.00 0.00 0.00 45 1014.4
20260901184702 37 162 8.0 16.1 0.00 0.00 0.00 46 1014.6
20260901184508 37 159 8.0 16.1 0.00 0.00 0.00 45 1014.3
20260901183803 37 177 9.7 19.3 0.00 0.00 0.00 44 1014.8
20260901183009 36 180 9.7 20.9 0.00 0.00 0.00 44 1014.6
20260901182902 37 172 9.7 20.9 0.00 0.00 0.00 44 1014.9
20260901182002 37 174 9.7 19.3 0.00 0.00 0.00 44 1015.1
20260901181512 36 155 9.7 20.9 0.00 0.00 0.00 45 1014.9
20260901181102 36 171 12.9 20.9 0.00 0.00 0.00 46 1015.3
20260901180004 36 169 12.9 30.6 0.00 0.00 0.00 45 1015.2
20260901175305 36 172 11.3 24.1 0.00 0.00 0.00 47 1015.6
20260901174504 36 189 12.9 20.9 0.00 0.00 0.00 47 1015.4
20260901174403 36 148 9.7 19.3 0.00 0.00 0.00 49 1015.8
20260901173502 36 164 11.3 19.3 0.00 0.00 0.00 48 1015.9
20260901173003 36 183 9.7 17.7 0.00 0.00 0.00 49 1015.7
20260901172602 36 157 8.0 17.7 0.00 0.00 0.00 49 1016.1
20260901171702 36 150 6.4 16.1 0.00 0.00 0.00 50 1016.1
20260901171503 36 160 11.3 16.1 0.00 0.00 0.00 50 1015.7
20260901170802 36 138 4.8 14.5 0.00 0.00 0.00 52 1016.2
20260901170006 35 119 8.0 16.1 0.00 0.00 0.00 50 1016.0
20260901165902 36 152 8.0 16.1 0.00 0.00 0.00 51 1016.3
20260901165002 35 181 9.7 22.5 0.00 0.00 0.00 50 1016.5
20260901164504 35 134 4.8 22.5 0.00 0.00 0.00 51 1016.2
20260901164102 35 155 8.0 16.1 0.00 0.00 0.00 53 1016.6
20260901163202 35 178 3.2 16.1 0.00 0.00 0.00 52 1016.6
20260901163109 34 173 4.8 12.9 0.00 0.00 0.00 52 1016.3
20260901162305 35 161 6.4 11.3 0.00 0.00 0.00 54 1016.7
20260901161509 35 98 4.8 11.3 0.00 0.00 0.00 54 1016.5
20260901161402 35 157 4.8 11.3 0.00 0.00 0.00 54 1016.8
20260901160004 34 183 6.4 14.5 0.00 0.00 0.00 56 1016.5
20260901155602 34 162 4.8 11.3 0.00 0.00 0.00 56 1017.0
20260901154702 34 147 4.8 11.3 0.00 0.00 0.00 57 1016.9
20260901154602 33 135 6.4 9.7 0.00 0.00 0.00 58 1016.5
20260901153802 34 152 4.8 9.7 0.00 0.00 0.00 57 1016.9
20260901153110 33 159 4.8 9.7 0.00 0.00 0.00 57 1016.6
20260901152902 33 149 4.8 12.9 0.00 0.00 0.00 58 1016.9
20260901152002 33 183 3.2 12.9 0.00 0.00 0.00 59 1016.9
20260901151603 33 238 1.6 8.0 0.00 0.00 0.00 59 1016.6
20260901151102 33 190 3.2 9.7 0.00 0.00 0.00 60 1016.9
20260901150202 33 195 3.2 6.4 0.00 0.00 0.00 62 1017.0
20260901150107 32 284 1.6 8.0 0.00 0.00 0.00 61 1016.6
20260901145306 32 171 3.2 9.7 0.00 0.00 0.00 62 1017.0
20260901144505 32 153 3.2 8.0 0.00 0.00 0.00 65 1016.7
20260901144402 32 135 1.6 8.0 0.00 0.00 0.00 64 1017.0
20260901143502 31 171 1.6 3.2 0.00 0.00 0.00 65 1017.0
20260901143002 31 311 0.0 3.2 0.00 0.00 0.00 66 1016.7
20260901142602 31 152 1.6 4.8 0.00 0.00 0.00 67 1017.0
20260901141702 30 150 1.6 4.8 0.00 0.00 0.00 69 1017.1
20260901141605 30 145 1.6 4.8 0.00 0.00 0.00 69 1016.8
20260901140802 30 140 1.6 4.8 0.00 0.00 0.00 71 1017.1
20260901140105 28 131 0.0 4.8 0.00 0.00 0.00 72 1016.8
20260901135902 29 131 1.6 4.8 0.00 0.00 0.00 73 1017.1
20260901134615 27 59 0.0 3.2 0.00 0.00 0.00 76 1016.8
20260901133202 26 81 0.0 3.2 0.00 0.00 0.00 80 1017.2
20260901133003 26 59 0.0 3.2 0.00 0.00 0.00 81 1016.8
20260901132306 26 90 0.0 3.2 0.00 0.00 0.00 83 1017.1
20260901131511 25 92 0.0 3.2 0.00 0.00 0.00 85 1016.8
20260901131402 25 43 0.0 3.2 0.00 0.00 0.00 85 1017.0